Location: Kellogg
(38.0159°N, 90.0546°W)
Time: 15:50:40
(UTC+00:00)

Vanguard 1 Rocket - Pass Details

Date: 21 September 2024
Orbit: 650 x 4218 km, 34.3° (Epoch: 07 October)

Event Time Altitude Azimuth Distance (km) Brightness Sun altitude
Rises 05:25:59 0° 187° (S) 3,856 - -51.0°
Reaches altitude 10° 05:29:21 10° 167° (SSE) 3,316 - -51.1°
Maximum altitude 05:34:44 18° 127° (SE) 3,413 - -51.2°
Exits shadow 05:42:18 10° 91° (E) 4,959 11.0 -51.4°
Drops below altitude 10° 05:42:18 10° 91° (E) 4,960 11.0 -51.4°
Sets 05:49:17 0° 77° (ENE) 6,755 11.9 -51.5°
